Damascus, Syria

3:57 AM EEST on October 24, 2017 (GMT +0300)
Damascus International

Weather History for OSDI - January, 2013

Change the Weather History Date:

Tuesday, January 8, 2013

  Actual Average Record
Temperature  
Mean Temperature 44 °F -  
Max Temperature 46 °F 55 °F 64 °F (2001)
Min Temperature 41 °F 34 °F 24 °F (2014)
Degree Days  
Heating Degree Days 22    
Moisture  
Dew Point 39 °F    
Average Humidity 84    
Maximum Humidity 100    
Minimum Humidity 70    
Precipitation  
Precipitation 0.31 in 0.04 in - ()
Sea Level Pressure  
Sea Level Pressure 29.74 in    
Wind  
Wind Speed 15 mph ()    
Max Wind Speed 29 mph    
Max Gust Speed 21 mph    
Visibility 6.5 miles    
Events Rain    
Averages and records for this station are not official NWS values.
T = Trace of Precipitation, MM = Missing Value Source: Averaged Metar Reports

Daily Weather History Graph

Daily Weather History Graph

Search for Another Location

Airport or City:

Trip Planner

Search our weather history database for the weather conditions in past years. The results will help you decide how hot, cold, wet, or windy it might be!

Date:

Astronomy

Jan. 08, 2013 Rise Set
Actual Time 6:38 AM EET 4:42 PM EET
Civil Twilight 6:11 AM EET 5:10 PM EET
Nautical Twilight 5:40 AM EET 5:40 PM EET
Astronomical Twilight 5:10 AM EET 6:10 PM EET
Moon 2:49 AM EET (1/8) 1:25 PM EET (1/8)
Length of Visible Light 10h 58m
Length of Day
10h 04m
Waning Crescent, 16% of the Moon is Illuminated
Jan 8
Waning Crescent
Jan 11
New
Jan 19
First Quarter
Jan 27
Full
Feb 3
Last Quarter

Hourly Weather History & Observations

Time (EET) Temp. Windchill Dew Point Humidity Pressure Visibility Wind Dir Wind Speed Gust Speed Precip Events Conditions
12:00 AM 44.6 °F 35.1 °F 37.4 °F 76% 29.77 in 6.2 mi WNW 27.6 mph - N/A   Scattered Clouds
1:00 AM 44.6 °F 36.4 °F 37.4 °F 76% 29.74 in 6.2 mi West 20.7 mph - N/A   Scattered Clouds
2:00 AM 45 °F - 40 °F 78% 29.75 in 9 mi West 20.1 mph - -   Partly Cloudy
2:00 AM 44.6 °F 36.4 °F 41.0 °F 87% 29.77 in 6.2 mi West 20.7 mph - N/A   Scattered Clouds
3:00 AM 42.8 °F - 37.4 °F 81% 29.77 in 6.2 mi Calm Calm - N/A   Scattered Clouds
4:00 AM 42.8 °F 37.5 °F 37.4 °F 81% 29.71 in 6.2 mi West 9.2 mph 20.7 mph N/A   Scattered Clouds
5:00 AM 42.8 °F 34.0 °F 37.4 °F 81% 29.74 in 6.2 mi West 20.7 mph - N/A   Scattered Clouds
6:00 AM 42.8 °F 36.6 °F 37.4 °F 81% 29.77 in 6.2 mi West 11.5 mph - N/A   Scattered Clouds
7:00 AM 42.8 °F 35.1 °F 37.4 °F 81% 29.80 in 6.2 mi West 16.1 mph - N/A   Scattered Clouds
8:00 AM 45 °F - 40 °F 78% 29.81 in 9 mi West 11.2 mph - -   Mostly Cloudy
8:00 AM 44.6 °F 38.8 °F 41.0 °F 87% 29.80 in 6.2 mi West 11.5 mph - N/A   Scattered Clouds
9:00 AM 44.6 °F 38.8 °F 41.0 °F 87% 29.80 in 6.2 mi West 11.5 mph - N/A   Mostly Cloudy
10:00 AM 50.0 °F - 42.8 °F 76% 29.83 in 6.2 mi SSW 28.8 mph - N/A   Mostly Cloudy
11:00 AM 46.4 °F 38.3 °F 42.8 °F 87% 29.77 in 6.2 mi West 23.0 mph - N/A   Mostly Cloudy
12:00 PM 44.6 °F 35.1 °F 39.2 °F 81% 29.74 in 6.2 mi SSW 27.6 mph - N/A   Mostly Cloudy
1:00 PM 44.6 °F 34.9 °F 39.2 °F 81% 29.74 in 6.2 mi SSW 28.8 mph - N/A   Mostly Cloudy
2:00 PM 42 °F - 39 °F 87% 29.74 in 9 mi West 20.1 mph - - Rain Light Rain
2:00 PM 41.0 °F 31.6 °F 37.4 °F 87% 29.74 in 6.2 mi West 20.7 mph - N/A Rain Rain
3:00 PM 41.0 °F 33.5 °F 41.0 °F 100% 29.71 in 6.2 mi SW 13.8 mph - N/A Rain Rain
4:00 PM 42.8 °F 35.1 °F 39.2 °F 87% 29.71 in 6.2 mi SW 16.1 mph - N/A Rain Light Rain
5:00 PM 42.8 °F 36.6 °F 39.2 °F 87% 29.68 in 5.0 mi SSW 11.5 mph - N/A Rain Light Rain
6:00 PM 42.8 °F 37.5 °F 42.8 °F 100% 29.68 in 5.0 mi SW 9.2 mph - N/A Rain Light Rain
7:00 PM 44.6 °F 38.8 °F 42.8 °F 93% 29.68 in 6.2 mi SW 11.5 mph - N/A Rain Rain
8:00 PM 44 °F - 42 °F 89% 29.69 in 9 mi West 8.9 mph - - Rain Light Rain
8:00 PM 44.6 °F 39.7 °F 41.0 °F 87% 29.68 in 6.2 mi West 9.2 mph - N/A Rain Light Rain
9:00 PM 42.8 °F 36.6 °F 33.8 °F 70% 29.71 in 6.2 mi West 11.5 mph - N/A Rain Light Rain
10:00 PM 41.0 °F 34.7 °F 33.8 °F 76% 29.71 in 6.2 mi WSW 10.4 mph - N/A   Mostly Cloudy
11:00 PM 41.0 °F 33.9 °F 35.6 °F 81% 29.71 in 6.2 mi SSW 12.7 mph - N/A   Mostly Cloudy